When you browse on this site, cookies collect data to enhance your experience and personalize the content and advertising you see.
Visit our Privacy Policy to learn more. By continuing to use the site, you agree to this use of cookies and data.
  • In United Kingdom
  • List of Countries
  • For 7 days
  • Water Temperature
  • Weather Map
  • Weather Widgets
  • user-avatar
    Login

    Hourly Weather Göksun

    Today, 25 August, Sunday

    Time Temperature Precipitation Wind Pressure Humidity
    00:00 +19°C° 0 mm 2 mps 648 mmHg 66%
    01:00 +18°C° 0 mm 2 mps 647 mmHg 69%
    02:00 +18°C° 0 mm 2 mps 647 mmHg 72%
    03:00 +17°C° 0 mm 2 mps 647 mmHg 74%
    04:00 +17°C° 0 mm 2 mps 647 mmHg 75%
    05:00 +17°C° 0 mm 2 mps 647 mmHg 76%
    06:00 +20°C° 0 mm 2 mps 648 mmHg 64%
    07:00 +23°C° 0 mm 2 mps 649 mmHg 53%
    08:00 +26°C° 0 mm 2 mps 650 mmHg 42%
    09:00 +28°C° 0 mm 2 mps 650 mmHg 35%
    10:00 +30°C° 0 mm 2 mps 650 mmHg 27%
    11:00 +32°C° 0 mm 2 mps 650 mmHg 20%
    12:00 +33°C° 0 mm 3 mps 650 mmHg 18%
    13:00 +34°C° 0 mm 4 mps 650 mmHg 17%
    14:00 +35°C° 0 mm 5 mps 650 mmHg 16%
    15:00 +34°C° 0 mm 5 mps 649 mmHg 18%
    16:00 +33°C° 0 mm 5 mps 649 mmHg 20%
    17:00 +32°C° 0 mm 4 mps 648 mmHg 23%
    18:00 +28°C° 0 mm 3 mps 648 mmHg 35%
    19:00 +25°C° 0 mm 2 mps 647 mmHg 47%
    20:00 +22°C° 0 mm 1 mps 646 mmHg 60%
    21:00 +21°C° 0 mm 1 mps 646 mmHg 61%
    22:00 +21°C° 0 mm 1 mps 646 mmHg 62%
    23:00 +21°C° 0 mm 1 mps 646 mmHg 63%

    Tomorrow, 26 August, Monday

    Time Temperature Precipitation Wind Pressure Humidity
    00:00 +20°C° 0 mm 1 mps 646 mmHg 62%
    01:00 +20°C° 0 mm 1 mps 646 mmHg 61%
    02:00 +19°C° 0 mm 2 mps 646 mmHg 60%
    03:00 +19°C° 0 mm 1 mps 646 mmHg 63%
    04:00 +19°C° 0 mm 1 mps 646 mmHg 66%
    05:00 +18°C° 0 mm 1 mps 645 mmHg 68%
    06:00 +21°C° 0 mm 1 mps 646 mmHg 59%
    07:00 +24°C° 0 mm 1 mps 648 mmHg 49%
    08:00 +27°C° 0 mm 1 mps 649 mmHg 40%
    09:00 +28°C° 0 mm 1 mps 649 mmHg 34%
    10:00 +30°C° 0 mm 2 mps 649 mmHg 29%
    11:00 +31°C° 0 mm 3 mps 649 mmHg 23%
    12:00 +33°C° 0 mm 4 mps 649 mmHg 23%
    13:00 +33°C° 0 mm 4 mps 649 mmHg 23%
    14:00 +33°C° 0 mm 5 mps 648 mmHg 24%
    15:00 +30°C° 0.1 mm 5 mps 648 mmHg 32%
    16:00 +28°C° 0.1 mm 5 mps 647 mmHg 39%
    17:00 +26°C° 0.1 mm 5 mps 647 mmHg 47%
    18:00 +25°C° 0.1 mm 4 mps 647 mmHg 53%
    19:00 +23°C° 0.1 mm 2 mps 647 mmHg 59%
    20:00 +21°C° 0.1 mm 1 mps 647 mmHg 65%
    21:00 +21°C° 0 mm 1 mps 646 mmHg 66%
    22:00 +20°C° 0 mm 1 mps 646 mmHg 67%
    23:00 +19°C° 0 mm 1 mps 646 mmHg 68%

    Day after tomorrow, 27 August, Tuesday

    Time Temperature Precipitation Wind Pressure Humidity
    00:00 +19°C° 0 mm 1 mps 646 mmHg 69%
    01:00 +19°C° 0 mm 1 mps 646 mmHg 70%
    02:00 +18°C° 0 mm 1 mps 646 mmHg 71%
    03:00 +18°C° 0 mm 1 mps 646 mmHg 72%
    04:00 +18°C° 0 mm 1 mps 646 mmHg 73%
    05:00 +16°C° 0 mm 1 mps 646 mmHg 75%
    06:00 +20°C° 0 mm 1 mps 647 mmHg 64%
    07:00 +22°C° 0 mm 1 mps 648 mmHg 54%
    08:00 +25°C° 0 mm 1 mps 648 mmHg 44%
    09:00 +27°C° 0 mm 2 mps 649 mmHg 38%
    10:00 +28°C° 0 mm 2 mps 649 mmHg 32%
    11:00 +30°C° 0 mm 2 mps 650 mmHg 26%
    12:00 +30°C° 0 mm 3 mps 649 mmHg 25%
    13:00 +32°C° 0 mm 4 mps 649 mmHg 24%
    14:00 +33°C° 0 mm 5 mps 649 mmHg 23%
    15:00 +32°C° 0 mm 5 mps 649 mmHg 26%
    16:00 +30°C° 0 mm 5 mps 648 mmHg 29%
    17:00 +29°C° 0 mm 5 mps 648 mmHg 32%
    18:00 +26°C° 0 mm 4 mps 648 mmHg 41%
    19:00 +24°C° 0 mm 3 mps 647 mmHg 50%
    20:00 +21°C° 0 mm 2 mps 647 mmHg 59%
    21:00 +20°C° 0 mm 2 mps 647 mmHg 62%
    22:00 +20°C° 0 mm 2 mps 647 mmHg 64%
    23:00 +19°C° 0 mm 2 mps 647 mmHg 66%

    28 August, Wednesday

    Time Temperature Precipitation Wind Pressure Humidity
    00:00 +19°C° 0 mm 2 mps 646 mmHg 67%
    01:00 +18°C° 0 mm 2 mps 646 mmHg 67%
    02:00 +18°C° 0 mm 2 mps 646 mmHg 68%
    03:00 +17°C° 0 mm 2 mps 646 mmHg 66%
    04:00 +17°C° 0 mm 3 mps 646 mmHg 65%
    05:00 +17°C° 0 mm 3 mps 646 mmHg 63%
    06:00 +19°C° 0 mm 2 mps 647 mmHg 54%
    07:00 +23°C° 0 mm 2 mps 648 mmHg 44%
    08:00 +25°C° 0 mm 2 mps 648 mmHg 35%
    09:00 +27°C° 0 mm 2 mps 649 mmHg 31%
    10:00 +29°C° 0 mm 2 mps 649 mmHg 27%
    11:00 +30°C° 0 mm 2 mps 649 mmHg 23%
    12:00 +31°C° 0 mm 2 mps 649 mmHg 22%
    13:00 +32°C° 0 mm 2 mps 649 mmHg 21%
    14:00 +34°C° 0 mm 2 mps 648 mmHg 19%
    15:00 +33°C° 0 mm 3 mps 648 mmHg 21%
    16:00 +31°C° 0 mm 3 mps 648 mmHg 24%
    17:00 +30°C° 0 mm 4 mps 647 mmHg 26%
    18:00 +27°C° 0 mm 3 mps 647 mmHg 39%
    19:00 +24°C° 0 mm 2 mps 646 mmHg 51%
    20:00 +22°C° 0 mm 1 mps 646 mmHg 64%
    21:00 +21°C° 0 mm 1 mps 646 mmHg 64%
    22:00 +21°C° 0 mm 1 mps 646 mmHg 63%
    23:00 +20°C° 0 mm 1 mps 646 mmHg 63%

    29 August, Thursday

    Time Temperature Precipitation Wind Pressure Humidity
    00:00 +20°C° 0 mm 1 mps 646 mmHg 63%
    01:00 +18°C° 0 mm 2 mps 646 mmHg 64%
    02:00 +18°C° 0 mm 2 mps 646 mmHg 64%
    03:00 +18°C° 0 mm 2 mps 645 mmHg 66%
    04:00 +17°C° 0 mm 2 mps 645 mmHg 67%
    05:00 +17°C° 0 mm 2 mps 645 mmHg 69%
    06:00 +21°C° 0 mm 1 mps 646 mmHg 59%
    07:00 +23°C° 0 mm 1 mps 647 mmHg 49%
    08:00 +26°C° 0 mm 1 mps 648 mmHg 39%
    09:00 +28°C° 0 mm 2 mps 648 mmHg 33%
    10:00 +30°C° 0 mm 2 mps 648 mmHg 28%
    11:00 +31°C° 0 mm 3 mps 649 mmHg 22%
    12:00 +33°C° 0 mm 4 mps 648 mmHg 21%
    13:00 +33°C° 0 mm 5 mps 648 mmHg 19%
    14:00 +34°C° 0 mm 6 mps 648 mmHg 17%
    15:00 +33°C° 0 mm 5 mps 647 mmHg 20%
    16:00 +32°C° 0 mm 5 mps 647 mmHg 23%
    17:00 +30°C° 0 mm 4 mps 646 mmHg 25%
    18:00 +27°C° 0 mm 3 mps 646 mmHg 40%
    19:00 +24°C° 0 mm 2 mps 645 mmHg 54%
    20:00 +21°C° 0 mm 1 mps 645 mmHg 68%
    21:00 +21°C° 0 mm 1 mps 645 mmHg 69%
    22:00 +19°C° 0 mm 2 mps 645 mmHg 70%
    23:00 +19°C° 0 mm 2 mps 645 mmHg 71%

    30 August, Friday

    Time Temperature Precipitation Wind Pressure Humidity
    00:00 +18°C° 0 mm 2 mps 645 mmHg 70%
    01:00 +18°C° 0 mm 2 mps 645 mmHg 68%
    02:00 +18°C° 0 mm 2 mps 644 mmHg 66%
    03:00 +17°C° 0 mm 2 mps 644 mmHg 66%
    04:00 +17°C° 0 mm 2 mps 644 mmHg 66%
    05:00 +16°C° 0 mm 2 mps 644 mmHg 66%
    06:00 +19°C° 0 mm 2 mps 645 mmHg 55%
    07:00 +22°C° 0 mm 3 mps 646 mmHg 43%
    08:00 +25°C° 0 mm 3 mps 647 mmHg 31%
    09:00 +27°C° 0 mm 3 mps 647 mmHg 27%
    10:00 +28°C° 0 mm 4 mps 648 mmHg 22%
    11:00 +29°C° 0 mm 4 mps 648 mmHg 18%
    12:00 +30°C° 0 mm 4 mps 648 mmHg 17%
    13:00 +30°C° 0 mm 5 mps 648 mmHg 17%
    14:00 +32°C° 0 mm 5 mps 648 mmHg 16%
    15:00 +30°C° 0 mm 5 mps 647 mmHg 18%
    16:00 +29°C° 0 mm 6 mps 647 mmHg 20%
    17:00 +28°C° 0 mm 6 mps 647 mmHg 22%
    18:00 +25°C° 0 mm 5 mps 646 mmHg 28%
    19:00 +22°C° 0 mm 3 mps 646 mmHg 34%
    20:00 +19°C° 0 mm 2 mps 646 mmHg 39%
    21:00 +19°C° 0 mm 2 mps 646 mmHg 39%
    22:00 +18°C° 0 mm 3 mps 646 mmHg 39%
    23:00 +18°C° 0 mm 3 mps 646 mmHg 39%
    Show more